[[{"header":{"parameterUnit":"m.s-1","parameterCategory":1,"la1":30.2991,"la2":30.254,"lo1":-89.0895,"lo2":-89.0444,"dy":0.0017,"dx":0.0017,"nx":28,"ny":28,"refTime":"2025-11-11T09:00:00:Z","depth":0,"parameterNumber":2,"parameterNumberName":"U-component_of_WINDS"},"data":[0,0,0,0,0,0,0,0,0,0,0,0,0,0,0,0,0,0,0,0,0,0,0,0,0,0,0,0,0,0,0,0,0,0,0,0,0,0,0,0,0,0,0,0,0,0,0,0,0,0,0,0,0,0,0,0,0,0,-0.7779,-0.7779,0,-0.7749,-0.7748,-0.7748,-0.7702,-0.7702,-0.7701,-0.77,-0.7669,-0.7669,-0.7669,0,0,0,0,0,0,0,0,0,0,0,0,0,-0.7798,-0.7798,-0.7779,-0.7779,-0.7778,-0.7749,-0.7748,-0.7748,-0.7703,-0.7702,-0.7701,-0.77,-0.7669,-0.7669,-0.7669,0,0,0,0,0,0,0,0,0,0,0,0,0,-0.7781,-0.7798,-0.7779,-0.7752,-0.7749,-0.7749,-0.7748,-0.7748,-0.7703,-0.7702,-0.77,-0.7699,-0.7669,-0.7669,-0.7669,-0.7692,0,0,-0.7668,-0.7668,0,0,0,0,0,0,0,0,-0.7782,-0.7781,-0.7756,-0.7754,-0.7751,-0.7728,-0.7744,-0.7729,-0.7703,-0.772,-0.77,-0.7699,-0.769,-0.7688,-0.7685,-0.7691,-0.7689,-0.7668,-0.7668,-0.7668,-0.7668,0,0,0,0,0,0,0,-0.7783,-0.7782,-0.7767,-0.7756,-0.7753,-0.7742,-0.7738,-0.7741,-0.7712,-0.7719,-0.7715,-0.7713,-0.7688,-0.7685,-0.7684,-0.7689,-0.7668,-0.7668,-0.7668,-0.7668,-0.7714,-0.7716,0,0,0,0,0,0,-0.7789,-0.7783,-0.7768,-0.7766,-0.7764,-0.7742,-0.7738,-0.7737,-0.7712,-0.7707,-0.7714,-0.7711,-0.7686,-0.7684,-0.7682,-0.7709,-0.7668,-0.7668,-0.7668,-0.7713,-0.7715,-0.7716,0,0,0,0,0,0,-0.7789,-0.7788,-0.7769,-0.7774,-0.777,-0.7743,-0.7742,-0.7737,-0.7734,-0.7708,-0.7703,-0.7716,-0.7685,-0.7683,-0.769,-0.7707,-0.7668,-0.7668,-0.7711,-0.7713,-0.7715,-0.7761,0,0,0,0,0,0,-0.779,-0.7788,-0.7796,-0.7774,-0.777,-0.7777,-0.7743,-0.7737,-0.7734,-0.7729,-0.7709,-0.7704,-0.7684,-0.7691,-0.769,-0.7706,-0.7668,-0.771,-0.7712,-0.7715,-0.7758,-0.7765,-0.777,0,0,0,0,0,-0.7791,-0.781,-0.7797,-0.7795,-0.778,-0.7778,-0.7776,-0.7752,-0.7735,-0.7743,-0.7727,-0.7705,-0.7706,-0.7692,-0.7691,-0.7707,-0.7709,-0.7712,-0.7714,-0.7756,-0.7763,-0.777,0,0,0,0,0,0,-0.7835,-0.7807,-0.7792,-0.7805,-0.7794,-0.7771,-0.778,-0.7761,-0.7755,-0.7752,-0.7722,-0.7718,-0.773,-0.7719,-0.7705,-0.7729,-0.7704,-0.7707,-0.7735,-0.7743,-0.7749,-0.775,-0.7668,0,0,0,0,0,-0.7846,-0.7847,-0.7823,-0.7836,-0.7832,-0.7807,-0.7806,-0.7788,-0.7777,-0.7772,-0.7756,-0.7746,-0.7744,-0.7743,-0.7739,-0.7757,-0.7752,-0.7768,-0.7774,-0.7779,-0.7781,-0.7791,-0.7798,-0.7726,-0.7725,-0.7725,0,0,-0.7869,-0.7854,-0.7856,-0.7845,-0.7835,-0.7837,-0.7804,-0.7807,-0.7808,-0.7772,-0.7779,-0.7767,-0.7754,-0.7767,-0.7772,-0.7759,-0.7801,-0.7783,-0.7787,-0.7786,-0.7795,-0.7802,-0.7808,-0.7727,-0.7727,-0.7727,0,0,-0.7912,-0.7901,-0.7911,-0.7902,-0.7888,-0.7871,-0.7874,-0.7854,-0.7845,-0.7851,-0.7825,-0.7826,-0.7823,-0.7815,-0.781,-0.7853,-0.7832,-0.7852,-0.7883,-0.7893,-0.7899,-0.7903,-0.7919,-0.7925,-0.7855,-0.7855,-0.7855,0,-0.7942,-0.7944,-0.7919,-0.7924,-0.792,-0.7889,-0.7899,-0.7892,-0.7877,-0.7876,-0.7861,-0.7857,-0.7846,-0.7857,-0.7868,-0.7865,-0.7868,-0.7854,-0.79,-0.7904,-0.7909,-0.7923,-0.7929,-0.7858,-0.7858,-0.7857,-0.7857,0,-0.7982,-0.7984,-0.7994,-0.7981,-0.7979,-0.7987,-0.7964,-0.7964,-0.7948,-0.7934,-0.7941,-0.7927,-0.792,-0.7922,-0.7906,-0.7932,-0.7924,-0.7905,-0.7879,-0.7918,-0.7931,-0.7937,-0.7862,-0.7861,-0.786,-0.7859,0,0,-0.805,-0.8024,-0.8029,-0.8023,-0.8006,-0.8007,-0.8014,-0.8008,-0.801,-0.8001,-0.8007,-0.8006,-0.7989,-0.7984,-0.7967,-0.7976,-0.8011,-0.7956,-0.7955,-0.7966,-0.8039,-0.8053,-0.806,-0.7997,-0.7998,-0.7999,-0.804,0,-0.8089,-0.8099,-0.8078,-0.8094,-0.8096,-0.8067,-0.8074,-0.8064,-0.8052,-0.8052,-0.8038,-0.8038,-0.8015,-0.8012,-0.802,-0.8005,-0.8025,-0.8002,-0.8002,-0.8003,-0.8006,-0.8066,-0.8081,-0.812,-0.8045,-0.8046,-0.8047,0,-0.8135,-0.813,-0.8146,-0.8129,-0.8129,-0.8135,-0.8129,-0.813,-0.8119,-0.8109,-0.8105,-0.8085,-0.8092,-0.8068,-0.8077,-0.8062,-0.8061,-0.8054,-0.8055,-0.8054,-0.8026,-0.8066,-0.8132,-0.8138,-0.8054,-0.8054,-0.8053,0,-0.8183,-0.818,-0.819,-0.8186,-0.8166,-0.8171,-0.8164,-0.8152,-0.815,-0.8145,-0.8144,-0.814,-0.8137,-0.8135,-0.8115,-0.8099,-0.8127,-0.8101,-0.8119,-0.812,-0.8125,-0.8125,-0.8192,-0.8126,-0.8126,-0.8126,-0.8126,0,-0.8228,-0.8239,-0.8211,-0.8217,-0.8229,-0.8205,-0.8218,-0.8207,-0.8197,-0.8201,-0.8176,-0.818,-0.8154,-0.8155,-0.814,-0.815,-0.815,-0.8142,-0.8138,-0.8144,-0.8145,-0.8143,-0.8139,-0.8127,-0.8127,-0.8127,-0.8127,0,-0.8283,-0.8264,-0.8273,-0.8255,-0.825,-0.826,-0.8245,-0.825,-0.8236,-0.8242,-0.8241,-0.822,-0.8221,-0.8201,-0.8198,-0.8188,-0.8205,-0.8196,-0.8208,-0.8205,-0.8225,-0.8224,-0.8292,-0.83,-0.823,-0.8231,-0.8231,0,-0.8313,-0.8321,-0.8304,-0.8305,-0.8298,-0.83,-0.8299,-0.8276,-0.8276,-0.8266,-0.8272,-0.8271,-0.8269,-0.8271,-0.8256,-0.8254,-0.8244,-0.8268,-0.8244,-0.825,-0.8245,-0.8244,-0.8245,-0.8273,-0.8274,-0.8275,-0.8275,0,-0.8368,-0.8359,-0.8358,-0.8354,-0.8353,-0.8349,-0.8343,-0.8346,-0.8321,-0.8323,-0.8323,-0.8322,-0.8319,-0.8318,-0.8313,-0.8306,-0.8287,-0.8284,-0.8288,-0.8294,-0.8301,-0.8298,-0.8222,-0.8282,-0.8281,-0.8281,-0.828,-0.828,-0.8411,-0.8417,-0.8406,-0.8407,-0.84,-0.8396,-0.84,-0.8388,-0.8388,-0.8384,-0.8371,-0.8375,-0.8365,-0.8357,-0.8351,-0.8354,-0.8342,-0.8348,-0.8349,-0.8351,-0.8355,-0.8301,-0.8353,-0.8353,-0.8353,-0.8352,-0.8352,0,-0.8464,-0.8457,-0.8457,-0.845,-0.8451,-0.8434,-0.8427,-0.8429,-0.8432,-0.8425,-0.8424,-0.8425,-0.8425,-0.8411,-0.8409,-0.8414,-0.8405,-0.8414,-0.8413,-0.8412,-0.8366,-0.8362,-0.8421,-0.8421,-0.8421,-0.8421,-0.8421,-0.8421,-0.8492,-0.8502,-0.8492,-0.8499,-0.8491,-0.8494,-0.8492,-0.8489,-0.8483,-0.8486,-0.8486,-0.8477,-0.8467,-0.8465,-0.8464,-0.846,-0.846,-0.8472,-0.8465,-0.8422,-0.8415,-0.8409,-0.8405,-0.8473,-0.8473,-0.8511,-0.8512,-0.8512]},{"header":{"parameterUnit":"m.s-1","parameterCategory":1,"la1":30.2991,"la2":30.254,"lo1":-89.0895,"lo2":-89.0444,"dy":0.0017,"dx":0.0017,"nx":28,"ny":28,"refTime":"2025-11-11T09:00:00:Z","depth":0,"parameterNumber":3,"parameterNumberName":"V-component_of_WINDS"},"data":[0,0,0,0,0,0,0,0,0,0,0,0,0,0,0,0,0,0,0,0,0,0,0,0,0,0,0,0,0,0,0,0,0,0,0,0,0,0,0,0,0,0,0,0,0,0,0,0,0,0,0,0,0,0,0,0,0,0,2.0339,2.0338,0,2.0278,2.0277,2.0277,2.0278,2.0279,2.0279,2.028,2.0213,2.021,2.0208,0,0,0,0,0,0,0,0,0,0,0,0,0,2.0451,2.0449,2.0339,2.0338,2.0337,2.0278,2.0277,2.0276,2.0278,2.0279,2.028,2.0281,2.0214,2.0211,2.0207,0,0,0,0,0,0,0,0,0,0,0,0,0,2.0397,2.0448,2.0339,2.0331,2.0329,2.0278,2.0277,2.0276,2.0277,2.0279,2.028,2.0281,2.0215,2.0211,2.0207,2.0158,0,0,2.0195,2.0194,0,0,0,0,0,0,0,0,2.0401,2.0393,2.0333,2.0331,2.033,2.0287,2.0292,2.0236,2.0277,2.0297,2.028,2.0282,2.0236,2.023,2.0216,2.0155,2.0152,2.0195,2.0193,2.0191,2.019,0,0,0,0,0,0,0,2.0404,2.0396,2.0315,2.0332,2.033,2.0329,2.0323,2.0282,2.026,2.0295,2.0295,2.0288,2.0235,2.022,2.0215,2.0151,2.0195,2.0192,2.0189,2.0188,2.0048,2.0046,0,0,0,0,0,0,2.041,2.0399,2.0316,2.0313,2.0369,2.0326,2.0319,2.0299,2.0261,2.0256,2.0287,2.0289,2.0226,2.0219,2.0212,2.0153,2.0191,2.0187,2.0185,2.0049,2.0047,2.0046,0,0,0,0,0,0,2.0413,2.0403,2.0319,2.0356,2.0345,2.0323,2.0301,2.0297,2.0282,2.0255,2.025,2.0276,2.0227,2.0218,2.0172,2.0151,2.0186,2.0182,2.0051,2.0048,2.0047,2.0034,0,0,0,0,0,0,2.0416,2.0404,2.0386,2.0356,2.0343,2.0281,2.0299,2.0295,2.0276,2.0277,2.0243,2.0238,2.0227,2.0178,2.0168,2.0146,2.0179,2.0052,2.005,2.0047,2.0036,2.0032,2.0028,0,0,0,0,0,2.042,2.0384,2.0385,2.0375,2.0321,2.028,2.0273,2.0262,2.0274,2.0255,2.0238,2.0239,2.0155,2.0173,2.0162,2.0139,2.0054,2.005,2.0047,2.0038,2.0032,2.0028,0,0,0,0,0,0,2.041,2.0379,2.0381,2.0334,2.031,2.028,2.0256,2.0256,2.0227,2.0229,2.0216,2.0208,2.0162,2.0146,2.0167,2.009,2.0106,2.01,2.0102,2.0097,2.0092,2.0097,2.0176,0,0,0,0,0,2.0403,2.0374,2.0348,2.0309,2.0297,2.0279,2.026,2.0255,2.0228,2.0218,2.0197,2.017,2.0138,2.0116,2.0085,2.0034,2.0026,2.0012,2.0008,2.0005,2.0,1.9972,1.9965,2.0035,2.0035,2.0035,0,0,2.0386,2.0366,2.0348,2.0306,2.0287,2.0256,2.027,2.0236,2.0213,2.0212,2.0168,2.0152,2.0121,2.0073,2.0051,2.0058,1.9979,2.0001,1.9998,1.9995,1.9968,1.9961,1.9955,2.0033,2.0034,2.0034,0,0,2.0341,2.0323,2.0289,2.027,2.0241,2.023,2.0221,2.0192,2.0182,2.0139,2.0138,2.0109,2.0053,2.0031,2.0013,1.9961,1.9961,1.9951,1.9929,1.9902,1.9896,1.9891,1.9872,1.9866,1.9946,1.9946,1.9946,0,2.0324,2.0278,2.027,2.0237,2.0219,2.0219,2.0184,2.0165,2.0127,2.0113,2.0122,2.0053,2.0032,1.9979,1.9967,1.9952,1.9941,1.9954,1.9898,1.9893,1.9888,1.987,1.9863,1.9945,1.9945,1.9945,1.9946,0,2.0259,2.0227,2.0203,2.0169,2.0147,2.0113,2.0099,2.0078,2.0074,2.0061,2.0017,1.9992,1.9956,1.9943,1.9938,1.9889,1.9895,1.9901,1.9917,1.988,1.9863,1.9856,1.9944,1.9944,1.9945,1.9945,0,0,2.0204,2.0167,2.0158,2.0143,2.0112,2.0087,2.0052,2.0019,2.0001,1.9975,1.9945,1.9899,1.9905,1.9884,1.9877,1.9854,1.9814,1.9863,1.9862,1.9854,1.9758,1.9754,1.9746,1.9814,1.9813,1.9812,1.9761,0,2.0155,2.0096,2.0089,2.0035,2.0006,2.0007,1.9977,1.9954,1.9941,1.9913,1.9899,1.9866,1.9877,1.9864,1.9841,1.9824,1.9794,1.9827,1.9785,1.9784,1.9792,1.9737,1.9731,1.9684,1.9754,1.9753,1.9752,0,2.009,2.0065,2.0009,1.9984,1.9971,1.9944,1.9914,1.9888,1.9861,1.9854,1.9832,1.9828,1.9791,1.9809,1.9758,1.9781,1.9763,1.9752,1.975,1.9745,1.9765,1.973,1.9669,1.9662,1.9741,1.9742,1.9743,0,2.0055,2.0007,1.9968,1.9955,1.9924,1.9905,1.9891,1.9866,1.9847,1.982,1.9807,1.9775,1.9757,1.9732,1.9719,1.9733,1.9668,1.9685,1.966,1.966,1.9646,1.9647,1.9581,1.9635,1.9635,1.9635,1.9636,0,2.0001,1.9967,1.9952,1.9928,1.989,1.9881,1.9843,1.9829,1.9808,1.978,1.9778,1.9752,1.9737,1.9708,1.9697,1.9657,1.9648,1.964,1.9638,1.964,1.9641,1.9628,1.9631,1.9634,1.9634,1.9634,1.9635,0,1.9956,1.9945,1.9902,1.9877,1.987,1.9843,1.982,1.9796,1.9785,1.975,1.9741,1.9722,1.9688,1.9673,1.963,1.9623,1.9577,1.9577,1.9586,1.9585,1.956,1.9563,1.9483,1.9472,1.9534,1.9534,1.9533,0,1.9922,1.9896,1.9869,1.9852,1.9837,1.9809,1.979,1.978,1.976,1.9729,1.9709,1.9675,1.9648,1.9593,1.9575,1.9542,1.9541,1.9516,1.9536,1.954,1.954,1.9542,1.9539,1.9512,1.9511,1.951,1.951,0,1.9863,1.9859,1.9833,1.9805,1.9783,1.9759,1.9736,1.9722,1.9708,1.9686,1.9652,1.9631,1.9589,1.9556,1.9523,1.9506,1.9505,1.9504,1.9496,1.9498,1.9505,1.9501,1.9575,1.9506,1.9506,1.9506,1.9507,1.9507,1.9822,1.9799,1.9777,1.9748,1.973,1.971,1.9686,1.9672,1.9645,1.9611,1.9607,1.9571,1.9545,1.9501,1.9484,1.9455,1.9461,1.945,1.9447,1.9444,1.9442,1.951,1.9448,1.9449,1.9449,1.9449,1.9449,0,1.9763,1.9749,1.9722,1.9692,1.9669,1.9672,1.9648,1.9627,1.9597,1.9574,1.9548,1.9509,1.9477,1.9457,1.9424,1.9405,1.9403,1.9396,1.9397,1.9393,1.9439,1.9449,1.9398,1.9398,1.9398,1.9398,1.9398,1.9398,1.9729,1.9691,1.9685,1.9638,1.9624,1.959,1.9576,1.9556,1.9539,1.9496,1.947,1.9458,1.9436,1.9402,1.9372,1.9367,1.9355,1.9347,1.9342,1.9385,1.939,1.9395,1.9404,1.9345,1.9345,1.9299,1.9298,1.9298]}]]